Portada
METAR-TAF:

METAR-TAF

Aeropuertos :

Lamerd, Irán

latitud: 27-22-22N, longitud: 53-11-20E, altitud: 408 m

Observación

El informe se hizo hace 48 minutos, a las 03:00 UTC
Viento 4 kt del oeste
Temperatura 8°C
Humedad 66%
Presión 1017 hPa
Visibilidad 10 km o más
sin nubes por debajo de 1500 m y sin presencia de cumulonimbus.

METAR: OISR 280300Z 27004KT CAVOK 08/02 Q1016 A3002 NOSIG

Hora: 07:18 (03:48 UTC)


TAF: falta

Observaciones y pronósticos meteorológicos de más de 4000 aeropuertos (mensajes METAR y TAF).

Los puntos amarillos y rojos representan las estaciones disponibles.

Ponga el ratón en el punto deseado para ver el nombre de la estación.

Haga clic para ver las observaciones y los pronósticos meteorológicos.

Para cambiar el mapa : haga clic en los botones verdes con una cruz de color negro para hacer un zoom, en el botón verde con un guión para alejar o en las flechas verdes para mapas adyacentes.


METAR-TAF: